When you browse on this site, cookies collect data to enhance your experience and personalize the content and advertising you see.
Visit our Privacy Policy to learn more. By continuing to use the site, you agree to this use of cookies and data.
  • Em Portugal
  • Lista de países
  • Para 7 dias
  • Temperatura da água
  • Mapas de satélite
  • Mapa do tempo
  • Widgets de tempo
  • user-avatar
    Iniciar Sessão

    Previsão horária em Gorlovka

    Hoje, 19 Fevereiro, Terça-feira

    Tempo Temperatura Precipitação Vento Pressão Humidade
    00:00 -7°C° 0 mm 3 m/s 741 mmHg 86%
    01:00 -7°C° 0 mm 3 m/s 741 mmHg 87%
    02:00 -8°C° 0 mm 3 m/s 742 mmHg 89%
    03:00 -8°C° 0 mm 2 m/s 741 mmHg 90%
    04:00 -9°C° 0 mm 2 m/s 742 mmHg 91%
    05:00 -9°C° 0 mm 2 m/s 742 mmHg 91%
    06:00 -9°C° 0 mm 2 m/s 742 mmHg 91%
    07:00 -9°C° 0 mm 2 m/s 743 mmHg 90%
    08:00 -8°C° 0 mm 2 m/s 744 mmHg 90%
    09:00 -8°C° 0 mm 2 m/s 744 mmHg 89%
    10:00 -7°C° 0 mm 2 m/s 744 mmHg 85%
    11:00 -6°C° 0 mm 2 m/s 745 mmHg 82%
    12:00 -2°C° 0 mm 1 m/s 745 mmHg 78%
    13:00 -2°C° 0 mm 1 m/s 745 mmHg 76%
    14:00 -1°C° 0 mm 1 m/s 745 mmHg 74%
    15:00 -2°C° 0 mm 0 m/s 745 mmHg 72%
    16:00 -2°C° 0 mm 1 m/s 745 mmHg 75%
    17:00 -3°C° 0 mm 1 m/s 745 mmHg 77%
    18:00 -4°C° 0 mm 1 m/s 744 mmHg 80%
    19:00 -4°C° 0 mm 1 m/s 744 mmHg 80%
    20:00 -7°C° 0 mm 2 m/s 744 mmHg 81%
    21:00 -7°C° 0 mm 2 m/s 744 mmHg 81%
    22:00 -7°C° 0 mm 2 m/s 744 mmHg 80%
    23:00 -8°C° 0 mm 3 m/s 743 mmHg 80%

    Amanhã, 20 Fevereiro, Quarta-feira

    Tempo Temperatura Precipitação Vento Pressão Humidade
    00:00 -8°C° 0 mm 3 m/s 743 mmHg 80%
    01:00 -8°C° 0 mm 3 m/s 743 mmHg 79%
    02:00 -8°C° 0 mm 3 m/s 743 mmHg 79%
    03:00 -8°C° 0 mm 3 m/s 742 mmHg 79%
    04:00 -8°C° 0 mm 3 m/s 742 mmHg 78%
    05:00 -8°C° 0 mm 3 m/s 741 mmHg 77%
    06:00 -8°C° 0 mm 3 m/s 741 mmHg 76%
    07:00 -7°C° 0 mm 3 m/s 741 mmHg 77%
    08:00 -8°C° 0 mm 4 m/s 740 mmHg 78%
    09:00 -7°C° 0 mm 4 m/s 740 mmHg 79%
    10:00 -4°C° 0 mm 4 m/s 740 mmHg 77%
    11:00 -4°C° 0 mm 5 m/s 740 mmHg 76%
    12:00 -2°C° 0 mm 5 m/s 739 mmHg 75%
    13:00 -1°C° 0 mm 5 m/s 739 mmHg 75%
    14:00 -1°C° 0 mm 4 m/s 738 mmHg 74%
    15:00 0°C° 0 mm 4 m/s 738 mmHg 74%
    16:00 -1°C° 0 mm 4 m/s 738 mmHg 74%
    17:00 -2°C° 0 mm 4 m/s 737 mmHg 73%
    18:00 -3°C° 0 mm 4 m/s 737 mmHg 73%
    19:00 -2°C° 0 mm 4 m/s 737 mmHg 75%
    20:00 -2°C° 0 mm 4 m/s 737 mmHg 77%
    21:00 -2°C° 0 mm 4 m/s 736 mmHg 78%
    22:00 -2°C° 0 mm 4 m/s 736 mmHg 80%
    23:00 -2°C° 0 mm 4 m/s 736 mmHg 82%

    Depois de amanhã, 21 Fevereiro, Quinta-feira

    Tempo Temperatura Precipitação Vento Pressão Humidade
    00:00 -2°C° 0 mm 4 m/s 735 mmHg 85%
    01:00 -2°C° 0 mm 5 m/s 735 mmHg 86%
    02:00 -2°C° 0 mm 5 m/s 735 mmHg 87%
    03:00 -1°C° 0 mm 5 m/s 735 mmHg 89%
    04:00 -1°C° 0.2 mm 4 m/s 734 mmHg 91%
    05:00 -1°C° 0.2 mm 4 m/s 734 mmHg 94%
    06:00 -1°C° 0.2 mm 4 m/s 734 mmHg 97%
    07:00 -1°C° 0 mm 4 m/s 734 mmHg 96%
    08:00 -1°C° 0 mm 4 m/s 733 mmHg 95%
    09:00 -1°C° 0 mm 4 m/s 733 mmHg 95%
    10:00 -1°C° 0 mm 5 m/s 733 mmHg 92%
    11:00 0°C° 0 mm 5 m/s 733 mmHg 89%
    12:00 -1°C° 0 mm 6 m/s 733 mmHg 86%
    13:00 -1°C° 0.2 mm 6 m/s 733 mmHg 86%
    14:00 -1°C° 0.2 mm 6 m/s 733 mmHg 86%
    15:00 -1°C° 0.2 mm 6 m/s 733 mmHg 86%
    16:00 -3°C° 0.1 mm 6 m/s 733 mmHg 81%
    17:00 -4°C° 0.1 mm 6 m/s 733 mmHg 77%
    18:00 -5°C° 0.1 mm 6 m/s 733 mmHg 72%
    19:00 -5°C° 0.1 mm 6 m/s 734 mmHg 74%
    20:00 -6°C° 0.1 mm 6 m/s 734 mmHg 75%
    21:00 -6°C° 0.1 mm 6 m/s 734 mmHg 76%
    22:00 -6°C° 0.1 mm 5 m/s 734 mmHg 76%
    23:00 -7°C° 0.1 mm 5 m/s 735 mmHg 76%

    22 Fevereiro, Sexta-feira

    Tempo Temperatura Precipitação Vento Pressão Humidade
    00:00 -7°C° 0.1 mm 5 m/s 735 mmHg 76%
    01:00 -7°C° 0.1 mm 5 m/s 735 mmHg 77%
    02:00 -8°C° 0.1 mm 5 m/s 735 mmHg 77%
    03:00 -8°C° 0.1 mm 4 m/s 735 mmHg 77%
    04:00 -8°C° 0 mm 4 m/s 735 mmHg 78%
    05:00 -9°C° 0 mm 4 m/s 735 mmHg 78%
    06:00 -9°C° 0 mm 4 m/s 735 mmHg 78%
    07:00 -9°C° 0 mm 4 m/s 736 mmHg 78%
    08:00 -9°C° 0 mm 4 m/s 736 mmHg 79%
    09:00 -9°C° 0 mm 4 m/s 736 mmHg 79%
    10:00 -8°C° 0 mm 5 m/s 736 mmHg 78%
    11:00 -7°C° 0 mm 5 m/s 736 mmHg 76%
    12:00 -7°C° 0 mm 5 m/s 736 mmHg 75%
    13:00 -7°C° 0 mm 5 m/s 736 mmHg 74%
    14:00 -7°C° 0 mm 4 m/s 736 mmHg 74%
    15:00 -7°C° 0 mm 4 m/s 736 mmHg 73%
    16:00 -7°C° 0.1 mm 4 m/s 737 mmHg 76%
    17:00 -7°C° 0.1 mm 4 m/s 737 mmHg 78%
    18:00 -8°C° 0.1 mm 4 m/s 737 mmHg 81%
    19:00 -10°C° 0.1 mm 5 m/s 738 mmHg 80%
    20:00 -11°C° 0.1 mm 5 m/s 738 mmHg 78%
    21:00 -14°C° 0.1 mm 6 m/s 739 mmHg 77%
    22:00 -14°C° 0 mm 6 m/s 739 mmHg 76%
    23:00 -14°C° 0 mm 5 m/s 739 mmHg 76%

    23 Fevereiro, Sábado

    Tempo Temperatura Precipitação Vento Pressão Humidade
    00:00 -14°C° 0 mm 5 m/s 740 mmHg 75%
    01:00 -14°C° 0 mm 5 m/s 740 mmHg 76%
    02:00 -14°C° 0 mm 4 m/s 740 mmHg 77%
    03:00 -14°C° 0 mm 4 m/s 740 mmHg 78%
    04:00 -15°C° 0 mm 4 m/s 740 mmHg 79%
    05:00 -15°C° 0 mm 4 m/s 740 mmHg 80%
    06:00 -15°C° 0 mm 4 m/s 740 mmHg 81%
    07:00 -15°C° 0 mm 5 m/s 741 mmHg 82%
    08:00 -15°C° 0 mm 5 m/s 741 mmHg 82%
    09:00 -15°C° 0 mm 5 m/s 742 mmHg 82%
    10:00 -15°C° 0 mm 5 m/s 742 mmHg 80%
    11:00 -14°C° 0 mm 5 m/s 742 mmHg 78%
    12:00 -14°C° 0 mm 5 m/s 742 mmHg 76%
    13:00 -13°C° 0 mm 5 m/s 742 mmHg 75%
    14:00 -13°C° 0 mm 5 m/s 742 mmHg 75%
    15:00 -13°C° 0 mm 5 m/s 742 mmHg 74%
    16:00 -13°C° 0 mm 5 m/s 743 mmHg 76%
    17:00 -14°C° 0 mm 5 m/s 743 mmHg 78%
    18:00 -15°C° 0 mm 4 m/s 743 mmHg 80%
    19:00 -15°C° 0 mm 4 m/s 743 mmHg 82%
    20:00 -15°C° 0 mm 4 m/s 744 mmHg 83%
    21:00 -16°C° 0 mm 4 m/s 744 mmHg 85%
    22:00 -16°C° 0 mm 4 m/s 744 mmHg 85%
    23:00 -16°C° 0 mm 4 m/s 744 mmHg 86%

    24 Fevereiro, Domingo

    Tempo Temperatura Precipitação Vento Pressão Humidade
    00:00 -16°C° 0 mm 4 m/s 744 mmHg 86%
    01:00 -16°C° 0 mm 4 m/s 744 mmHg 86%
    02:00 -16°C° 0 mm 4 m/s 744 mmHg 87%
    03:00 -16°C° 0 mm 4 m/s 744 mmHg 87%
    04:00 -16°C° 0 mm 4 m/s 744 mmHg 87%
    05:00 -17°C° 0 mm 5 m/s 744 mmHg 87%
    06:00 -17°C° 0 mm 5 m/s 744 mmHg 88%
    07:00 -17°C° 0 mm 5 m/s 744 mmHg 87%
    08:00 -15°C° 0 mm 5 m/s 744 mmHg 87%
    09:00 -15°C° 0 mm 5 m/s 745 mmHg 87%
    10:00 -14°C° 0 mm 5 m/s 745 mmHg 86%
    11:00 -14°C° 0 mm 5 m/s 745 mmHg 85%
    12:00 -13°C° 0 mm 5 m/s 745 mmHg 85%
    13:00 -12°C° 0 mm 5 m/s 745 mmHg 85%
    14:00 -12°C° 0 mm 5 m/s 745 mmHg 85%
    15:00 -11°C° 0 mm 6 m/s 745 mmHg 85%
    16:00 -11°C° 0 mm 6 m/s 745 mmHg 86%
    17:00 -11°C° 0 mm 5 m/s 745 mmHg 86%
    18:00 -11°C° 0 mm 5 m/s 745 mmHg 87%
    19:00 -11°C° 0.1 mm 6 m/s 745 mmHg 88%
    20:00 -12°C° 0.1 mm 6 m/s 746 mmHg 88%
    21:00 -12°C° 0.1 mm 6 m/s 746 mmHg 89%
    22:00 -12°C° 0 mm 6 m/s 746 mmHg 89%
    23:00 -12°C° 0 mm 6 m/s 746 mmHg 90%
    Mostrar mais